Emerado, ND

11:41 PM CST on December 04, 2016 (GMT -0600)
Grand Forks International

Weather History for KGFK - November, 2011

Change the Weather History Date:

Tuesday, November 8, 2011

  Actual Average Record
Temperature  
Mean Temperature 34 °F 31 °F  
Max Temperature 53 °F 40 °F 69 °F (1999)
Min Temperature 15 °F 21 °F -13 °F (2003)
Degree Days  
Heating Degree Days 31 34  
Month to date heating degree days 195 258  
Since 1 July heating degree days 890 1289  
Cooling Degree Days 0 0  
Month to date cooling degree days 0 0  
Year to date cooling degree days 538 379  
Moisture  
Dew Point 19 °F    
Average Humidity 59    
Maximum Humidity 88    
Minimum Humidity 30    
Precipitation  
Precipitation 0.00 in 0.04 in 1.17 in (1977)
Month to date precipitation T 0.33  
Year to date precipitation 18.95 19.58  
Snow  
Snow 0.00 in 0.10 in 5.50 in (1986)
Month to date snowfall 0.0 1.3  
Since 1 July snowfall 0.0 2.8  
Since 1 September snowfall 0.0 2.8  
Snow Depth 0.00 in    
Sea Level Pressure  
Sea Level Pressure 30.13 in    
Wind  
Wind Speed 9 mph (SSW)    
Max Wind Speed 25 mph    
Max Gust Speed 31 mph    
Visibility 10 miles    
Events      
T = Trace of Precipitation, MM = Missing Value Source: NWS Daily Summary

Daily Weather History Graph

Daily Weather History Graph

Search for Another Location

Airport or City:

Trip Planner

Search our weather history database for the weather conditions in past years. The results will help you decide how hot, cold, wet, or windy it might be!

Date:

Astronomy

Nov. 08, 2011 Rise Set
Actual Time 7:23 AM CST 5:00 PM CST
Civil Twilight 6:50 AM CST 5:33 PM CST
Nautical Twilight 6:13 AM CST 6:10 PM CST
Astronomical Twilight 5:37 AM CST 6:46 PM CST
Moon 3:44 PM CST (11/8) 5:19 AM CST (11/8)
Length of Visible Light 10h 42m
Length of Day
9h 36m
Waxing Gibbous, 96% of the Moon is Illuminated
Nov 8
Waxing Gibbous
Nov 10
Full
Nov 18
Last Quarter
Nov 25
New
Dec 2
First Quarter

Hourly Weather History & Observations

Time (CST) Temp. Windchill Dew Point Humidity Pressure Visibility Wind Dir Wind Speed Gust Speed Precip Events Conditions
12:53 AM 21.0 °F 13.4 °F 16.0 °F 81% 30.19 in 10.0 mi South 5.8 mph - N/A   Clear
1:53 AM 19.9 °F - 15.1 °F 81% 30.18 in 10.0 mi Calm Calm - N/A   Clear
2:53 AM 17.6 °F 12.3 °F 12.2 °F 79% 30.14 in 10.0 mi SSE 3.5 mph - N/A   Clear
3:53 AM 16.0 °F 6.3 °F 12.0 °F 84% 30.17 in 10.0 mi South 6.9 mph - N/A   Clear
4:53 AM 19.0 °F 8.2 °F 15.1 °F 85% 30.19 in 10.0 mi South 9.2 mph - N/A   Clear
5:53 AM 19.4 °F 10.4 °F 15.8 °F 86% 30.15 in 10.0 mi South 6.9 mph - N/A   Clear
6:53 AM 18.0 °F 9.8 °F 14.0 °F 84% 30.20 in 10.0 mi South 5.8 mph - N/A   Partly Cloudy
7:53 AM 19.0 °F 10.0 °F 14.0 °F 81% 30.19 in 10.0 mi SSE 6.9 mph - N/A   Partly Cloudy
8:53 AM 25.0 °F 16.3 °F 19.0 °F 78% 30.18 in 10.0 mi South 8.1 mph - N/A   Clear
9:53 AM 33.1 °F 26.9 °F 25.0 °F 72% 30.17 in 10.0 mi SSW 6.9 mph - N/A   Clear
10:53 AM 41.0 °F 35.2 °F 25.0 °F 53% 30.16 in 10.0 mi SSW 9.2 mph - N/A   Clear
11:53 AM 46.9 °F - 24.1 °F 41% 30.13 in 10.0 mi SSW 13.8 mph - N/A   Clear
12:53 PM 50.0 °F - 21.9 °F 33% 30.10 in 10.0 mi SSW 16.1 mph - N/A   Partly Cloudy
1:53 PM 52.0 °F - 21.9 °F 31% 30.08 in 10.0 mi South 25.3 mph 31.1 mph N/A   Scattered Clouds
2:53 PM 51.1 °F - 25.0 °F 36% 30.08 in 10.0 mi SW 18.4 mph 28.8 mph N/A   Partly Cloudy
3:53 PM 50.0 °F - 24.1 °F 36% 30.08 in 10.0 mi SW 10.4 mph - N/A   Partly Cloudy
4:53 PM 43.0 °F 38.2 °F 23.0 °F 45% 30.09 in 10.0 mi West 8.1 mph - N/A   Clear
5:53 PM 37.0 °F 32.4 °F 19.9 °F 50% 30.10 in 10.0 mi WSW 5.8 mph - N/A   Clear
6:53 PM 30.9 °F 25.2 °F 19.0 °F 61% 30.12 in 10.0 mi WSW 5.8 mph - N/A   Clear
7:53 PM 25.0 °F 17.1 °F 18.0 °F 75% 30.12 in 10.0 mi South 6.9 mph - N/A   Clear
8:53 PM 24.1 °F 17.0 °F 17.1 °F 75% 30.11 in 10.0 mi South 5.8 mph - N/A   Clear
9:53 PM 27.0 °F 19.5 °F 17.1 °F 66% 30.10 in 10.0 mi South 6.9 mph - N/A   Clear
10:53 PM 27.0 °F 18.7 °F 17.1 °F 66% 30.10 in 10.0 mi West 8.1 mph - N/A   Clear
11:53 PM 28.9 °F 21.9 °F 19.0 °F 67% 30.11 in 10.0 mi West 6.9 mph - N/A   Clear